星链-5403 (STARLINK-5403 )

导读 | 星芒AI

STARLINK-5403 是 SpaceX 星链计划中的一颗低轨通信卫星,属于星链第三代(v1.5)卫星系列。该卫星部署于近地轨道,旨在为全球用户提供高速互联网服务。它采用先进的推进系统和激光通信技术,以提高网络效率和覆盖范围。作为星链星座的一部分,STARLINK-5403 有助于增强 SpaceX 在全球宽带市场的竞争力,并支持偏远地区的网络接入。

基本信息
目录编号:
54862
目录名称:
STARLINK-5403
国际标识:
2022-177AU
轨道中心:
EARTH
卫星名称:
星链-5403
卫星全名:
星链-5403 (STARLINK-5403 )
卫星状态:
在轨 (已飞行1089 天)
发射日期:
2022-12-28 UTC
国别 :
美国 (US)
星等 :
--
轨道信息
数据来源 国际轨道数据 AOE轨道数据
星历时间 2025-12-20T14:23:56+0800
1天前
查看轨道信息
2025-12-19T20:00:00+0800
2天前
查看轨道信息
半长轴 6937.223km 6937.244km
偏心率 0.0001087 0.0001282
轨道倾角 43.003° 43.003°
近地点辐角 269.279° 46.823°
升交点赤经 192.272° 196.443°
平近点角 90.793° 121.703°
近地点 558.331km 558.217km
远地点 559.841km 559.997km
周期 95.838分钟 95.839分钟
每日圈数 15.025342 15.025274
详细信息
固有亮度:
5
最大亮度:
2.5
卫星平台:
Starlink v1.5
覆盖范围:
全球
运营商:
太空探索技术公司
运营商所在国:
美国
制造商(研发单位):
太空探索技术公司
制造商所在国:
美国
使用方式:
暂无
卫星简介
星链(Starlink)计划是由太空探索技术公司(SpaceX)提出的一个巨型低轨卫星互联网星座项目,计划在2019年至2024年间在太空搭建由约1.2万颗卫星组成的“星链”网络,其中1584颗将部署在地球上空550千米处的近地轨道,并从2020年开始工作。该卫星仍在工作。
2D轨道图
3D轨道图
轨道高度分析图
轨道倾角分析图
轨道综合分析图
查看轨道综合分析图